User: anonymous   Login
Location: �chenoz-la-M�line
(47.6009°N, 6.1354°E)
Time: 05:47:31
(UTC+00:00)
Language:

Cosmos 1602 Rocket - Orbit

View from above orbital plane
View from above orbital plane
View from above satellite
View from above satellite

Ground track
Ground track

The orbit data is extracted from the following two-line orbital elements,

1 15332U 84105B   21112.50962376  .00000121  00000-0  11709-4 0  9993
2 15332  82.5324 314.3142 0022437  58.0037   3.0103 14.83458085953830
Epoch (UTC): 22 April 2021 12:13:51
Eccentricity: 0.0022437
inclination: 82.5324°
perigee height: 603 km
apogee height: 634 km
right ascension of ascending node: 314.3142°
argument of perigee: 58.0037°
revolutions per day: 14.83458085
mean anomaly at epoch: 3.0103°
orbit number at epoch: 95383

The dashed part of the orbit path shows where the satellite is in the earth's shadow,  

DLR